Home   Weather   Albuquerque   Past weeks
Flag for USA

Past Weather in Albuquerque, New Mexico, USA — Yesterday and Last 2 Weeks

Now
39 °F

More clouds than sun.


Feels Like: 29 °F
Forecast: 46 / 35 °F
Wind: 20 mph from Northwest

Location: Albuquerque International Airport

Current Time: Jan 18, 2019 at 11:08:38 am

Latest Report: Jan 18, 2019 at 9:52 am


Visibility: 10 mi

Pressure: 29.96 "Hg (24.87 "Hg at 1510m altitude)

Humidity: 76%

Dew Point: 32 °F

Location of AlbuquerqueLocation

Past Weather in Albuquerque — Graph

°F

Albuquerque Temperature Yesterday

Maximum temperature yesterday: 54 °F (at 2:52 pm)
Minimum temperature yesterday: 29 °F (at 5:52 am)
Average temperature yesterday: 42 °F

High & Low Weather Summary for the Past Weeks

 TemperatureHumidityPressure
High54 °F (Jan 16, 2:52 pm)100% (Jan 10, 9:52 pm)30.49 "Hg (Jan 10, 9:52 pm)
Low14 °F (Jan 4, 4:52 am)34% (Jan 17, 2:52 pm)29.84 "Hg (Jan 18, 4:52 am)
Average36 °F73%30.20 "Hg
* Reported Jan 3 9:52 am — Jan 18 9:52 am, Albuquerque. Weather by CustomWeather, © 2019

Note: Actual official high and low records may vary slightly from our data, if they occured in-between our weather recording intervals... More about our weather records

Advertising

Albuquerque Weather History for the Previous 24 Hours

Scroll right to see more
 ConditionsComfort  
Time TempWeatherWind HumidityBarometerVisibility
9:52 am
Fri, Jan 18
39 °FMore clouds than sun.20 mph76%29.96 "Hg10 mi
8:52 am39 °FLight rain. Overcast.20 mph82%29.96 "Hg6 mi
8:28 am40 °FLight rain. Mostly cloudy.30 mph80%29.98 "Hg8 mi
7:52 am44 °FLight rain. Mostly cloudy.16 mph73%29.86 "Hg10 mi
6:52 am44 °FMostly cloudy.5 mph76%29.88 "Hg10 mi
5:52 am43 °FMostly cloudy.3 mph82%29.85 "Hg10 mi
4:52 am44 °FMostly cloudy.10 mph71%29.84 "Hg10 mi
4:21 am43 °FLight rain. Mostly cloudy.7 mph71%29.95 "Hg8 mi
3:52 am42 °FOvercast.8 mph65%29.87 "Hg10 mi
2:52 am46 °FMostly cloudy.14 mph63%29.89 "Hg10 mi
1:52 am45 °FOvercast.7 mph53%29.93 "Hg10 mi
12:52 am42 °FMostly cloudy.7 mph65%29.96 "Hg10 mi
11:52 pm
Thu, Jan 17
42 °FMostly cloudy.7 mph62%30.02 "Hg10 mi
10:52 pm43 °FMostly cloudy.12 mph58%30.03 "Hg10 mi
9:52 pm42 °FPassing clouds.9 mph62%30.03 "Hg10 mi
8:52 pm39 °FPassing clouds.7 mph73%30.07 "Hg10 mi
7:52 pm49 °FPassing clouds.5 mph46%30.07 "Hg10 mi
6:52 pm46 °FPassing clouds.5 mph54%30.09 "Hg10 mi
5:52 pm50 °FPassing clouds.3 mph44%30.10 "Hg10 mi
4:52 pm53 °FPartly sunny.6 mph38%30.06 "Hg10 mi
3:52 pm54 °FPartly sunny.7 mph35%30.09 "Hg10 mi
2:52 pm54 °FScattered clouds.6 mph34%30.08 "Hg10 mi
1:52 pm51 °FScattered clouds.3 mph44%30.11 "Hg10 mi
12:52 pm50 °FPassing clouds.No wind50%30.16 "Hg10 mi
11:52 am47 °FPassing clouds.No wind56%30.23 "Hg10 mi
Weather by CustomWeather, © 2019

See weather overview